Simultaneous Nadir Overpasses (SNOs) Predictions

Prediction of SNOs between GOES-15 and TERRA Satellite Orbit:

Table of predicted SNOs for the next 14.0 days since TLE Epoch: 2/4/2023
Index Date Time (GOES-15) GOES-15 Lat,Lon TERRA Lat,Lon Distance(km) Time Diff (sec)
1 02/04/2023 06:51:10 0.03,-128.30 -0.40,-130.38 235.95 80
2 02/06/2023 06:37:58 0.02,-128.29 0.41,-126.54 199.52 80
3 02/06/2023 18:55:36 -0.03,-128.25 0.64,-131.47 366.46 80
4 02/08/2023 18:42:23 -0.03,-128.24 -0.13,-127.63 68.94 80
5 02/09/2023 07:00:11 0.03,-128.28 -0.90,-132.60 491.29 80
6 02/11/2023 06:44:19 0.03,-128.27 -0.05,-128.77 56.43 80
7 02/13/2023 06:31:06 0.03,-128.25 0.76,-124.94 377.87 80
8 02/13/2023 18:48:43 -0.04,-128.20 0.33,-129.86 188.54 80
9 02/15/2023 18:35:30 -0.04,-128.17 -0.50,-126.02 244.52 80
10 02/16/2023 06:53:17 0.05,-128.21 -0.52,-131.00 316.46 80
